Regional Weather Roundup
Issued by NWS

Home | Current Version | Previous Version | Graphics & Text | Print | Product List | Glossary On
Versions: 1 2 3 4 5 6 7 8 9 10 11 12 13 14 15 16 17 18 19 20 21 22 23 24 25 26 27 28 29 30 31 32 33 34 35 36 37 38 39 40 41 42 43 44 45 46 47 48 49 50
000
ASUS43 KIND 280609
RWRIN

WEATHER ROUNDUP FOR INDIANA
NATIONAL WEATHER SERVICE INDIANAPOLIS IN
100 AM EST TUE FEB 28 2017

NOTE: "FAIR" INDICATES FEW OR NO CLOUDS BELOW 12,000 FEET WITH NO
SIGNIFICANT WEATHER AND/OR OBSTRUCTIONS TO VISIBILITY.

* - STATION DOES NOT REPORT WEATHER SUCH AS PRECIPITATION OR FOG.

+ - STATION NOT QUALITY CONTROLLED BY THE NATIONAL WEATHER SERVICE.
    USE DATA WITH CAUTION...ESPECIALLY DEWPOINT AND RELATIVE
    HUMIDITY OBSERVATIONS.

INZ001>003-010>013-019-020-280700-
NORTHWEST INDIANA

CITY           SKY/WX    TMP DP  RH WIND       PRES   REMARKS
GARY /AIRPORT/ CLOUDY    47  39  74 SE10      30.02F
KNOX *+        CLOUDY    43  28  56 SE9       30.08F
LA PORTE +     CLOUDY    43  40  89 SE8       30.08F
6HR MIN TEMP:  39; 6HR MAX TEMP:  44;

MICHIGAN CITY+ CLOUDY    45  39  81 S10G16    30.07F
MONTICELLO +   CLOUDY    45  41  86 SE6       30.05F
6HR MIN TEMP:  44; 6HR MAX TEMP:  49;

RENSSELAER +   PTCLDY    45  43  93 SE10      30.04F
VALPARAISO     CLOUDY    45  41  86 SE10      30.05F
6HR MIN TEMP:  44; 6HR MAX TEMP:  48;


$$

LMZ046-743>745-280700-
SOUTHERN LAKE MICHIGAN

STATION/POSITION TIME  TEMP    WIND        PRES    WAVE
                       AIR SEA DIR/SP/G            HT
                 (UTC) (F)     (DEG/KT/KT) (MB)    (FT)
BURNS HARBOR     0540   47     170/ 12/ 20 1017.9F
MICHIGAN CITY    0540   45     140/ 11/ 14   N/A

$$

INZ004-005-014>016-021>024-280700-
NORTH CENTRAL INDIANA

CITY           SKY/WX    TMP DP  RH WIND       PRES   REMARKS
GOSHEN         CLOUDY    43  38  82 SE10      30.11S
6HR MIN TEMP:  42; 6HR MAX TEMP:  44;

LOGANSPORT +   CLOUDY    43  41  93 SE10      30.10F
PERU/GRISSOM   CLOUDY    42  42 100 SE8       30.09F
6HR MIN TEMP:  41; 6HR MAX TEMP:  44;

ROCHESTER +    PTCLDY    45  41  87 SE7       30.11R
SOUTH BEND     CLOUDY    43  39  86 SE10      30.11R
6HR MIN TEMP:  42; 6HR MAX TEMP:  45;

WARSAW +       CLOUDY    43  39  87 SE3       30.12R

$$

INZ006>009-017-018-025>027-280700-
NORTHEAST INDIANA

CITY           SKY/WX    TMP DP  RH WIND       PRES   REMARKS
ANGOLA *+      CLOUDY    39  36  87 SE7       30.12F
AUBURN +       PTCLDY    41  37  87 SE5       30.13F FOG
FORT WAYNE     CLOUDY    41  39  93 SE7       30.13F FOG
6HR MIN TEMP:  37; 6HR MAX TEMP:  44;

HUNTINGTON +   CLOUDY    41  40  97 SE6       30.12F
6HR MIN TEMP:  39; 6HR MAX TEMP:  44;

KENDALLVILLE + CLOUDY    40  38  96 SE8       30.12F FOG

$$

INZ028-029-035-036-043>045-051>053-280700-
WEST CENTRAL INDIANA

CITY           SKY/WX    TMP DP  RH WIND       PRES   REMARKS
GREENCASTLE +  FAIR      43  41  93 SE7       30.07F
LAFAYETTE      LGT RAIN  45  42  89 SE14      30.03F
6HR MIN TEMP:  45; 6HR MAX TEMP:  48; 6HR PCP:  0.01;

TERRE HAUTE    CLOUDY    49  41  74 SE8       30.04F
6HR MIN TEMP:  46; 6HR MAX TEMP:  49;


$$

INZ030>032-037>040-046>048-054>057-064-065-280700-
CENTRAL INDIANA

CITY           SKY/WX    TMP DP  RH WIND       PRES   REMARKS
CP ATTERBURY + CLOUDY    43  39  87 S6        30.12F
FISHERS *+     CLOUDY    43  43 100 SE3       30.11F
FRANKFORT +    CLOUDY    46  43  88 SE10      30.10F
6HR MIN TEMP:  42; 6HR MAX TEMP:  47;

GREENWOOD *+   MOCLDY    45  41  86 S7        30.10F
6HR MIN TEMP:  44; 6HR MAX TEMP:  48;

INDIANAPOLIS   CLOUDY    46  40  79 SE13      30.09F
6HR MIN TEMP:  43; 6HR MAX TEMP:  48;

-EAGLE CREEK   CLOUDY    47  39  74 SE7       30.10F
6HR MIN TEMP:  45; 6HR MAX TEMP:  48;

KOKOMO +       CLOUDY    43  40  89 SE8       30.11F
6HR MIN TEMP:  41; 6HR MAX TEMP:  45;

MARION +       CLOUDY    43  40  89 S8        30.13S
MT COMFORT *+  CLOUDY    43  39  87 SE3       30.11F
SHELBYVILLE    CLOUDY    48  39  71 SE14      30.10F
6HR MIN TEMP:  43; 6HR MAX TEMP:  48;

ZIONSVILLE +   CLOUDY    43  40  87 SE7       30.11S
6HR MIN TEMP:  42; 6HR MAX TEMP:  44;


$$

INZ033-034-041-042-049-050-058-059-280700-
EAST CENTRAL INDIANA

CITY           SKY/WX    TMP DP  RH WIND       PRES   REMARKS
MUNCIE         CLOUDY    46  40  79 S9        30.12F
6HR MIN TEMP:  45; 6HR MAX TEMP:  48;


$$

INZ060-061-067>069-081>083-085>088-280700-
SOUTHWEST INDIANA

CITY           SKY/WX    TMP DP  RH WIND       PRES   REMARKS
EVANSVILLE     CLOUDY    54  43  66 S13       30.09S
6HR MIN TEMP:  49; 6HR MAX TEMP:  54;

HUNTINGBURG *+ PTCLDY    52  45  76 S9        30.11S
6HR MIN TEMP:  46; 6HR MAX TEMP:  54;

WASHINGTON +   CLOUDY    51  41  67 S15       30.07S
6HR MIN TEMP:  42; 6HR MAX TEMP:  52;


$$

INZ062-063-066-070>080-084-089>092-280700-
SOUTH CENTRAL AND SOUTHEAST INDIANA

CITY           SKY/WX    TMP DP  RH WIND       PRES   REMARKS
BEDFORD +      CLOUDY    48  39  71 SE8       30.10F
BLOOMINGTON    CLOUDY    47  39  74 SE9       30.08F
6HR MIN TEMP:  45; 6HR MAX TEMP:  47;

MADISON *+     CLOUDY    46  39  76 SE6       30.16S
NORTH VERNON + MOCLDY    48  41  76 SE6       30.14F
SEYMOUR +      MOCLDY    46  39  76 SE7       30.12F

$$




USA.gov is the U.S. government's official web portal to all federal, state and local government web resources and services.